Tracking 20232 objects as of 21-Jan-2020
HD Live streaming from Space Station
objects crossing your sky now

COSMOS 1375 DEB

Track COSMOS 1375 DEB now!
10-day predictions


NORAD ID: 16376
Int'l Code: 1982-055Q
Perigee: 911.1 km
Apogee: 940.7 km
Inclination: 65.8 °
Period: 103.4 minutes
Semi major axis: 7296 km
RCS: 0.0298 m2 (small)
Launch date: June 6, 1982
Source: Commonwealth of Independent States (former USSR) (CIS)
Launch site: PLESETSK MISSILE AND SPACE COMPLEX (PKMTR)

Note: This is SATELLITE DEBRIS
aabbcc
Your satellite tracking list
Your tracking list is empty




NASA's NSSDC Master Catalog

Two Line Element Set (TLE):
1 16376U 82055Q   20021.38956122  .00000073  00000-0  12136-3 0  9990
2 16376  65.8280 154.6036 0020312 186.8165 206.7825 13.92817948734266
Source of the keplerian elements: AFSPC